Regional Weather Roundup
Issued by NWS

Home | Current Version | Previous Version | Text Only | Print | Product List | Glossary On
Versions: 1 2 3 4 5 6 7 8 9 10 11 12 13 14 15 16 17 18 19 20 21 22 23 24 25 26 27 28 29 30 31 32 33 34 35 36 37 38 39 40 41 42 43 44 45 46 47 48 49 50
000
ASUS44 KJAN 260210
RWRMS

MISSISSIPPI HOURLY WEATHER ROUNDUP
NATIONAL WEATHER SERVICE JACKSON MS
900 PM CDT SAT MAR 25 2017

NOTE: "FAIR: INDICATES FEW OR NO CLOUDS BELOW 12,000 FEET WITH NO
SIGNIFICANT WEATHER AND/OR OBSTRUCTIONS TO VISIBILITY.

MSZ001>002-007>008-010>013-018>021-025>028-034>036-260300-
NORTHWEST MISSISSIPPI

CITY           SKY/WX    TMP DP  RH WIND       PRES   REMARKS
CLARKSDALE     PTCLDY    64  64 100 CALM      29.93R
GREENWOOD      CLEAR     62  59  90 S5        29.94R
GREENVILLE     CLEAR     63  55  75 CALM      29.92R
OXFORD         FAIR      59  55  88 S8        29.98R
TUNICA         CLEAR     61  59  94 S8        29.93R
WINONA         FAIR      60  59  99 CALM      29.96R
$$

MSZ003>006-009-014>017-022>024-029>033-037>039-260300-
NORTHEAST MISSISSIPPI

CITY           SKY/WX    TMP DP  RH WIND       PRES   REMARKS
COLUMBUS AFB   CLOUDY    60  59  97 SE9       29.99R
GOLDN TRIANGLE CLOUDY    61  54  77 SE13      29.96R
STARKVILLE     MOCLDY    59  57  94 SE3       30.01R
TUPELO         CLOUDY    60  55  83 SE7       29.97R
$$

MSZ040-058-260300-
CENTRAL MISSISSIPPI

CITY           SKY/WX    TMP DP  RH WIND       PRES   REMARKS
JACKSON INTL   PTCLDY    65  56  72 S8        29.95R
JACKSON HAWKNS CLOUDY    65  56  72 S12       29.95R
MADISON        FAIR      64  55  72 S3        29.95R
MERIDIAN KEY   PTCLDY    59  58  96 S3        30.00R
MERIDIAN NAS   CLOUDY    60  56  86 SE9       30.00S
RAYMOND        FAIR      64  55  72 SE5       29.94R
VICKSBURG VKS  MOCLDY    68  59  73 S3        29.91R
$$

MSZ059>079-260300-
SOUTH MISSISSIPPI

CITY           SKY/WX    TMP DP  RH WIND       PRES   REMARKS
BROOKHAVEN     FAIR      64  59  82 S12       29.98S
COLUMBIA       FAIR      61 N/A N/A S7        30.02R
HATTIESBURG    CLEAR     60  57  89 CALM      30.01R
MCCOMB         CLEAR     61  58  90 SE7       29.98R
NATCHEZ        PTCLDY    66  55  68 S7        29.94R
PINE BELT      CLEAR     57  54  88 SW3       30.02R
$$

MSZ080>082-260300-
COASTAL MISSISSIPPI

CITY           SKY/WX    TMP DP  RH WIND       PRES   REMARKS
BILOXI         MOCLDY    67  62  84 S9        30.01R
PASCAGOULA     CLOUDY    62  59  90 CALM      30.04R
GULFPORT       PTCLDY    65  63  93 S5        30.01R
$$

LAZ007>009-015>016-023>026-260300-
NORTHEAST LOUISIANA

CITY           SKY/WX    TMP DP  RH WIND       PRES   REMARKS
BASTROP        FAIR      58  54  86 CALM      29.94R
TALLULAH/VBURG CLOUDY    68  60  75 CALM      29.93R
$$



USA.gov is the U.S. government's official web portal to all federal, state and local government web resources and services.